Location: Bovenkerk
(52.2915°N, 4.8336°E)
Time: 05:21:44
(UTC+00:00)

SPOT 3 Rocket - Pass Details

Date: 09 April 2020
Orbit: 779 x 795 km, 98.8° (Epoch: 01 June)

Event Time Altitude Azimuth Distance (km) Brightness Sun altitude
Exits shadow 19:22:45 - 158° (SSE) 3,201 6.3 -8.5°
Reaches altitude 10° 19:24:52 10° 157° (SSE) 2,356 5.6 -8.8°
Maximum altitude 19:30:04 79° 71° (ENE) 812 3.6 -9.5°
Drops below altitude 10° 19:35:17 10° 346° (NNW) 2,364 6.7 -10.2°
Sets 19:37:37 0° 346° (NNW) 3,294 7.5 -10.5°
